| time (UTC) | temp F | wind direction | speed MPH | gust MPH | rain 1hr in | rain 24hr in | rain mn in | humidity % | barometer mb |
| 20260505172801 | 58 | 85 | 1.0 | 6.0 | 0.00 | 0.00 | 0.00 | 37 | 1016.3 |
| 20260505172305 | 56 | 211 | 1.0 | 6.0 | 0.00 | 0.00 | 0.00 | 36 | 1016.4 |
| 20260505171801 | 55 | 187 | 0.0 | 3.0 | 0.00 | 0.00 | 0.00 | 41 | 1016.5 |
| 20260505171303 | 55 | 200 | 1.0 | 6.0 | 0.00 | 0.00 | 0.00 | 40 | 1016.5 |
| 20260505170800 | 55 | 291 | 1.0 | 6.0 | 0.00 | 0.00 | 0.00 | 40 | 1016.4 |
| 20260505170301 | 56 | 350 | 1.0 | 4.0 | 0.00 | 0.00 | 0.00 | 40 | 1016.5 |
| 20260505165802 | 56 | 26 | 2.0 | 5.0 | 0.00 | 0.00 | 0.00 | 39 | 1016.4 |
| 20260505164802 | 56 | 42 | 2.0 | 6.0 | 0.00 | 0.00 | 0.00 | 41 | 1016.5 |
| 20260505164301 | 57 | 37 | 1.0 | 5.0 | 0.00 | 0.00 | 0.00 | 38 | 1016.4 |
| 20260505163803 | 57 | 338 | 1.0 | 4.0 | 0.00 | 0.00 | 0.00 | 36 | 1016.5 |
| 20260505163302 | 57 | 331 | 0.0 | 2.0 | 0.00 | 0.00 | 0.00 | 39 | 1016.3 |
| 20260505162301 | 56 | 29 | 1.0 | 4.0 | 0.00 | 0.00 | 0.00 | 37 | 1016.4 |
| 20260505161801 | 56 | 109 | 1.0 | 3.0 | 0.00 | 0.00 | 0.00 | 36 | 1016.3 |
| 20260505161302 | 56 | 54 | 1.0 | 3.0 | 0.00 | 0.00 | 0.00 | 39 | 1016.3 |
| 20260505160301 | 56 | 71 | 1.0 | 4.0 | 0.00 | 0.00 | 0.00 | 38 | 1016.3 |
| 20260505153301 | 53 | 277 | 0.0 | 0.0 | 0.00 | 0.00 | 0.00 | 47 | 1016.4 |
| 20260505152802 | 52 | 278 | 0.0 | 1.0 | 0.00 | 0.00 | 0.00 | 47 | 1016.4 |
| 20260505152304 | 52 | 258 | 0.0 | 2.0 | 0.00 | 0.00 | 0.00 | 48 | 1016.4 |
| 20260505151302 | 51 | 312 | 0.0 | 1.0 | 0.00 | 0.00 | 0.00 | 53 | 1016.5 |
| 20260505150801 | 50 | 304 | 0.0 | 3.0 | 0.00 | 0.00 | 0.00 | 52 | 1016.5 |
| 20260505150302 | 49 | 309 | 0.0 | 3.0 | 0.00 | 0.00 | 0.00 | 50 | 1016.4 |
| 20260505140304 | 44 | 222 | 0.0 | 1.0 | 0.00 | 0.00 | 0.00 | 63 | 1016.0 |
| 20260505130303 | 44 | 40 | 0.0 | 1.0 | 0.00 | 0.00 | 0.00 | 68 | 1015.3 |
| 20260505124801 | 43 | 265 | 1.0 | 5.0 | 0.00 | 0.00 | 0.00 | 61 | 1015.2 |
| 20260505124301 | 43 | 98 | 1.0 | 3.0 | 0.00 | 0.00 | 0.00 | 66 | 1015.2 |
| 20260505123301 | 44 | 314 | 2.0 | 6.0 | 0.00 | 0.00 | 0.00 | 58 | 1015.0 |
| 20260505122803 | 44 | 217 | 1.0 | 2.0 | 0.00 | 0.00 | 0.00 | 64 | 1014.9 |
| 20260505122305 | 44 | 244 | 1.0 | 3.0 | 0.00 | 0.00 | 0.00 | 63 | 1014.9 |
| 20260505121802 | 44 | 237 | 1.0 | 3.0 | 0.00 | 0.00 | 0.00 | 66 | 1014.8 |
| 20260505120753 | 43 | 300 | 1.0 | 4.0 | 0.00 | 0.00 | 0.00 | 56 | 1014.6 |
| 20260505120255 | 43 | 280 | 1.0 | 4.0 | 0.00 | 0.00 | 0.00 | 70 | 1014.6 |
| 20260505115251 | 43 | 256 | 1.0 | 3.0 | 0.00 | 0.00 | 0.00 | 67 | 1014.6 |
| 20260505114252 | 42 | 273 | 1.0 | 3.0 | 0.00 | 0.00 | 0.00 | 71 | 1014.6 |
| 20260505113752 | 42 | 242 | 1.0 | 3.0 | 0.00 | 0.00 | 0.00 | 69 | 1014.6 |
| 20260505113251 | 42 | 238 | 0.0 | 2.0 | 0.00 | 0.00 | 0.00 | 67 | 1014.6 |
| 20260505112749 | 42 | 246 | 1.0 | 2.0 | 0.00 | 0.00 | 0.00 | 74 | 1014.8 |
| 20260505111749 | 42 | 240 | 1.0 | 2.0 | 0.00 | 0.00 | 0.00 | 72 | 1014.5 |
| 20260505110745 | 42 | 271 | 0.0 | 2.0 | 0.00 | 0.00 | 0.00 | 71 | 1014.6 |
| 20260505110246 | 42 | 243 | 0.0 | 2.0 | 0.00 | 0.00 | 0.00 | 69 | 1014.6 |
| 20260505101736 | 44 | 295 | 0.0 | 1.0 | 0.00 | 0.00 | 0.00 | 69 | 1014.6 |
| 20260505101236 | 44 | 296 | 0.0 | 0.0 | 0.00 | 0.00 | 0.00 | 63 | 1014.6 |
| 20260505100736 | 44 | 296 | 0.0 | 0.0 | 0.00 | 0.00 | 0.00 | 65 | 1014.8 |
| 20260505100235 | 44 | 296 | 0.0 | 1.0 | 0.00 | 0.00 | 0.00 | 67 | 1014.8 |
| 20260505095737 | 45 | 296 | 0.0 | 1.0 | 0.00 | 0.00 | 0.00 | 66 | 1014.6 |
| 20260505095235 | 45 | 0 | 0.0 | 1.0 | 0.00 | 0.00 | 0.00 | 66 | 1014.6 |
| 20260505094736 | 45 | 285 | 0.0 | 1.0 | 0.00 | 0.00 | 0.00 | 66 | 1014.6 |
| 20260505094235 | 45 | 284 | 0.0 | 1.0 | 0.00 | 0.00 | 0.00 | 62 | 1014.6 |
| 20260505093736 | 45 | 284 | 0.0 | 1.0 | 0.00 | 0.00 | 0.00 | 70 | 1014.6 |
| 20260505093233 | 46 | 283 | 1.0 | 2.0 | 0.00 | 0.00 | 0.00 | 69 | 1014.6 |
| 20260505092734 | 46 | 57 | 1.0 | 3.0 | 0.00 | 0.00 | 0.00 | 66 | 1014.6 |
| 20260505092233 | 46 | 225 | 1.0 | 3.0 | 0.00 | 0.00 | 0.00 | 58 | 1014.8 |
| 20260505091734 | 46 | 292 | 0.0 | 1.0 | 0.00 | 0.00 | 0.00 | 62 | 1014.6 |
| 20260505091229 | 47 | 271 | 1.0 | 2.0 | 0.00 | 0.00 | 0.00 | 59 | 1014.6 |
| 20260505090730 | 47 | 248 | 1.0 | 2.0 | 0.00 | 0.00 | 0.00 | 55 | 1014.6 |
| 20260505090224 | 49 | 284 | 1.0 | 3.0 | 0.00 | 0.00 | 0.00 | 55 | 1014.6 |
| 20260505085718 | 50 | 304 | 0.0 | 3.0 | 0.00 | 0.00 | 0.00 | 45 | 1014.6 |
| 20260505085210 | 49 | 296 | 0.0 | 3.0 | 0.00 | 0.00 | 0.00 | 42 | 1014.9 |
| 20260505084707 | 49 | 248 | 1.0 | 2.0 | 0.00 | 0.00 | 0.00 | 45 | 1014.8 |
| 20260505084207 | 49 | 231 | 1.0 | 3.0 | 0.00 | 0.00 | 0.00 | 50 | 1014.8 |
| 20260505083706 | 49 | 144 | 1.0 | 3.0 | 0.00 | 0.00 | 0.00 | 44 | 1014.8 |
| 20260505083202 | 50 | 213 | 1.0 | 12.0 | 0.00 | 0.00 | 0.00 | 46 | 1014.9 |
| 20260505082704 | 51 | 253 | 3.0 | 12.0 | 0.00 | 0.00 | 0.00 | 49 | 1014.8 |
| 20260505082202 | 51 | 50 | 6.0 | 13.0 | 0.00 | 0.00 | 0.00 | 42 | 1014.8 |
| 20260505081706 | 50 | 67 | 4.0 | 13.0 | 0.00 | 0.00 | 0.00 | 45 | 1014.8 |
| 20260505080707 | 46 | 284 | 1.0 | 3.0 | 0.00 | 0.00 | 0.00 | 64 | 1014.8 |
| 20260505080204 | 46 | 241 | 0.0 | 3.0 | 0.00 | 0.00 | 0.00 | 62 | 1014.8 |
| 20260505075706 | 46 | 275 | 0.0 | 2.0 | 0.00 | 0.00 | 0.00 | 60 | 1015.0 |
| 20260505075203 | 46 | 261 | 0.0 | 2.0 | 0.00 | 0.00 | 0.00 | 62 | 1014.8 |
| 20260505074704 | 46 | 276 | 0.0 | 2.0 | 0.00 | 0.00 | 0.00 | 63 | 1015.0 |
| 20260505074201 | 46 | 276 | 1.0 | 2.0 | 0.00 | 0.00 | 0.00 | 64 | 1015.0 |
| 20260505073703 | 46 | 232 | 1.0 | 2.0 | 0.00 | 0.00 | 0.00 | 65 | 1014.9 |
| 20260505073201 | 46 | 275 | 0.0 | 1.0 | 0.00 | 0.00 | 0.00 | 63 | 1014.6 |
| 20260505072703 | 47 | 268 | 0.0 | 2.0 | 0.00 | 0.00 | 0.00 | 61 | 1014.8 |
| 20260505072201 | 47 | 279 | 1.0 | 2.0 | 0.00 | 0.00 | 0.00 | 62 | 1014.6 |
| 20260505071703 | 48 | 261 | 1.0 | 3.0 | 0.00 | 0.00 | 0.00 | 56 | 1014.8 |
| 20260505071201 | 49 | 281 | 2.0 | 9.0 | 0.00 | 0.00 | 0.00 | 56 | 1014.8 |
| 20260505070706 | 48 | 290 | 2.0 | 9.0 | 0.00 | 0.00 | 0.00 | 57 | 1014.8 |
| 20260505070201 | 48 | 283 | 2.0 | 3.0 | 0.00 | 0.00 | 0.00 | 60 | 1014.8 |
| 20260505065702 | 48 | 238 | 1.0 | 3.0 | 0.00 | 0.00 | 0.00 | 59 | 1014.8 |
| 20260505065201 | 49 | 327 | 1.0 | 3.0 | 0.00 | 0.00 | 0.00 | 57 | 1014.5 |
| 20260505064702 | 49 | 269 | 1.0 | 3.0 | 0.00 | 0.00 | 0.00 | 54 | 1014.8 |
| 20260505064202 | 50 | 204 | 1.0 | 3.0 | 0.00 | 0.00 | 0.00 | 54 | 1014.9 |
| 20260505063201 | 50 | 63 | 1.0 | 5.0 | 0.00 | 0.00 | 0.00 | 55 | 1014.6 |
| 20260505062707 | 50 | 160 | 1.0 | 4.0 | 0.00 | 0.00 | 0.00 | 54 | 1014.6 |
| 20260505062201 | 51 | 219 | 1.0 | 4.0 | 0.00 | 0.00 | 0.00 | 52 | 1014.5 |
| 20260505061707 | 51 | 242 | 2.0 | 4.0 | 0.00 | 0.00 | 0.00 | 48 | 1014.5 |
| 20260505061201 | 52 | 324 | 2.0 | 5.0 | 0.00 | 0.00 | 0.00 | 48 | 1014.5 |
| 20260505055705 | 54 | 61 | 4.0 | 10.0 | 0.00 | 0.00 | 0.00 | 38 | 1014.5 |
| 20260505054705 | 53 | 349 | 3.0 | 11.0 | 0.00 | 0.00 | 0.00 | 44 | 1014.6 |
| 20260505054202 | 54 | 46 | 6.0 | 11.0 | 0.00 | 0.00 | 0.00 | 39 | 1014.5 |
| 20260505053659 | 54 | 39 | 6.0 | 11.0 | 0.00 | 0.00 | 0.00 | 39 | 1014.4 |
| 20260505053152 | 54 | 86 | 5.0 | 11.0 | 0.00 | 0.00 | 0.00 | 37 | 1014.2 |
| 20260505052653 | 54 | 173 | 3.0 | 11.0 | 0.00 | 0.00 | 0.00 | 45 | 1014.4 |
| 20260505052154 | 54 | 88 | 3.0 | 11.0 | 0.00 | 0.00 | 0.00 | 41 | 1014.5 |
| 20260505051148 | 54 | 67 | 5.0 | 12.0 | 0.00 | 0.00 | 0.00 | 42 | 1014.3 |
| 20260505050148 | 54 | 227 | 8.0 | 18.0 | 0.00 | 0.00 | 0.00 | 39 | 1014.3 |
| 20260505041646 | 55 | 91 | 16.0 | 22.0 | 0.00 | 0.00 | 0.00 | 45 | 1014.1 |
| 20260505041145 | 55 | 119 | 14.0 | 20.0 | 0.00 | 0.00 | 0.00 | 44 | 1013.9 |
| 20260505040646 | 54 | 75 | 16.0 | 21.0 | 0.00 | 0.00 | 0.00 | 45 | 1013.9 |
| 20260505040146 | 54 | 90 | 17.0 | 22.0 | 0.00 | 0.00 | 0.00 | 45 | 1013.9 |
| 20260505035648 | 54 | 78 | 17.0 | 24.0 | 0.00 | 0.00 | 0.00 | 45 | 1013.9 |
| 20260505035146 | 55 | 44 | 18.0 | 25.0 | 0.00 | 0.00 | 0.00 | 45 | 1013.8 |
| 20260505034644 | 55 | 74 | 17.0 | 25.0 | 0.00 | 0.00 | 0.00 | 45 | 1013.9 |
| 20260505034144 | 55 | 106 | 15.0 | 21.0 | 0.00 | 0.00 | 0.00 | 45 | 1013.7 |
| 20260505033644 | 55 | 113 | 14.0 | 21.0 | 0.00 | 0.00 | 0.00 | 44 | 1013.6 |
| 20260505033144 | 55 | 37 | 13.0 | 21.0 | 0.00 | 0.00 | 0.00 | 44 | 1013.6 |
| 20260505032643 | 55 | 95 | 13.0 | 20.0 | 0.00 | 0.00 | 0.00 | 46 | 1013.6 |
| 20260505032144 | 55 | 70 | 14.0 | 20.0 | 0.00 | 0.00 | 0.00 | 43 | 1013.6 |
| 20260505031644 | 55 | 74 | 15.0 | 21.0 | 0.00 | 0.00 | 0.00 | 44 | 1013.6 |
| 20260505031144 | 55 | 67 | 15.0 | 21.0 | 0.00 | 0.00 | 0.00 | 45 | 1013.4 |
| 20260505030646 | 55 | 66 | 13.0 | 21.0 | 0.00 | 0.00 | 0.00 | 46 | 1013.6 |
| 20260505025644 | 56 | 80 | 12.0 | 19.0 | 0.00 | 0.00 | 0.00 | 45 | 1013.3 |
| 20260505025145 | 56 | 78 | 12.0 | 19.0 | 0.00 | 0.00 | 0.00 | 44 | 1013.3 |
| 20260505024644 | 56 | 73 | 12.0 | 21.0 | 0.00 | 0.00 | 0.00 | 43 | 1013.3 |
| 20260505024144 | 56 | 84 | 13.0 | 21.0 | 0.00 | 0.00 | 0.00 | 46 | 1013.3 |
| 20260505023645 | 56 | 86 | 14.0 | 21.0 | 0.00 | 0.00 | 0.00 | 44 | 1013.3 |
| 20260505023143 | 56 | 59 | 16.0 | 22.0 | 0.00 | 0.00 | 0.00 | 45 | 1013.3 |
| 20260505022645 | 56 | 86 | 15.0 | 22.0 | 0.00 | 0.00 | 0.00 | 43 | 1013.4 |
| 20260505022143 | 56 | 69 | 14.0 | 20.0 | 0.00 | 0.00 | 0.00 | 45 | 1013.4 |
| 20260505021143 | 56 | 71 | 13.0 | 17.0 | 0.00 | 0.00 | 0.00 | 48 | 1013.2 |
| 20260505020144 | 56 | 76 | 13.0 | 23.0 | 0.00 | 0.00 | 0.00 | 47 | 1013.3 |
| 20260505015644 | 57 | 60 | 13.0 | 23.0 | 0.00 | 0.00 | 0.00 | 44 | 1013.3 |
| 20260505015145 | 57 | 96 | 13.0 | 21.0 | 0.00 | 0.00 | 0.00 | 46 | 1013.3 |
| 20260505014644 | 57 | 80 | 13.0 | 20.0 | 0.00 | 0.00 | 0.00 | 45 | 1013.4 |
| 20260505014144 | 57 | 78 | 12.0 | 20.0 | 0.00 | 0.00 | 0.00 | 44 | 1013.2 |
| 20260505013644 | 57 | 76 | 12.0 | 23.0 | 0.00 | 0.00 | 0.00 | 45 | 1013.2 |
| 20260505012640 | 57 | 88 | 14.0 | 20.0 | 0.00 | 0.00 | 0.00 | 46 | 1013.1 |
| 20260505012141 | 58 | 80 | 14.0 | 20.0 | 0.00 | 0.00 | 0.00 | 45 | 1013.1 |
| 20260505011639 | 58 | 95 | 13.0 | 20.0 | 0.00 | 0.00 | 0.00 | 44 | 1013.2 |
| 20260505011140 | 58 | 50 | 12.0 | 17.0 | 0.00 | 0.00 | 0.00 | 45 | 1013.2 |
| 20260505010640 | 58 | 77 | 11.0 | 20.0 | 0.00 | 0.00 | 0.00 | 44 | 1013.2 |
| 20260505010140 | 58 | 69 | 11.0 | 20.0 | 0.00 | 0.00 | 0.00 | 42 | 1013.0 |
| 20260505005639 | 59 | 44 | 12.0 | 19.0 | 0.00 | 0.00 | 0.00 | 44 | 1013.0 |
| 20260505005140 | 59 | 80 | 10.0 | 15.0 | 0.00 | 0.00 | 0.00 | 44 | 1013.0 |
| 20260505004636 | 59 | 70 | 10.0 | 15.0 | 0.00 | 0.00 | 0.00 | 44 | 1012.9 |
| 20260505004137 | 59 | 79 | 10.0 | 15.0 | 0.00 | 0.00 | 0.00 | 44 | 1012.9 |
| 20260505003635 | 59 | 114 | 11.0 | 17.0 | 0.00 | 0.00 | 0.00 | 45 | 1012.9 |
| 20260505003137 | 59 | 55 | 10.0 | 17.0 | 0.00 | 0.00 | 0.00 | 45 | 1013.1 |
| 20260505002637 | 60 | 82 | 8.0 | 14.0 | 0.00 | 0.00 | 0.00 | 44 | 1013.0 |
| 20260505002135 | 60 | 99 | 8.0 | 14.0 | 0.00 | 0.00 | 0.00 | 46 | 1013.0 |
| 20260505001136 | 60 | 89 | 8.0 | 14.0 | 0.00 | 0.00 | 0.00 | 44 | 1012.9 |
| 20260505000636 | 59 | 45 | 8.0 | 14.0 | 0.00 | 0.00 | 0.00 | 44 | 1012.9 |
| 20260505000130 | 59 | 105 | 9.0 | 14.0 | 0.00 | 0.00 | 0.00 | 43 | 1012.9 |
| 20260504234630 | 59 | 124 | 12.0 | 18.0 | 0.00 | 0.00 | 0.00 | 45 | 1012.9 |
| 20260504234130 | 59 | 86 | 11.0 | 18.0 | 0.00 | 0.00 | 0.00 | 44 | 1012.8 |
| 20260504233631 | 60 | 83 | 11.0 | 18.0 | 0.00 | 0.00 | 0.00 | 44 | 1012.9 |
| 20260504232632 | 60 | 46 | 13.0 | 23.0 | 0.00 | 0.00 | 0.00 | 44 | 1012.9 |
| 20260504232131 | 59 | 80 | 13.0 | 18.0 | 0.00 | 0.00 | 0.00 | 45 | 1012.9 |
| 20260504231631 | 60 | 22 | 14.0 | 22.0 | 0.00 | 0.00 | 0.00 | 46 | 1013.2 |
| 20260504231132 | 60 | 30 | 14.0 | 22.0 | 0.00 | 0.00 | 0.00 | 46 | 1013.1 |
| 20260504230631 | 60 | 60 | 13.0 | 22.0 | 0.00 | 0.00 | 0.00 | 46 | 1013.0 |
| 20260504230133 | 60 | 84 | 14.0 | 22.0 | 0.00 | 0.00 | 0.00 | 46 | 1013.1 |
| 20260504225632 | 60 | 13 | 14.0 | 21.0 | 0.00 | 0.00 | 0.00 | 44 | 1012.9 |
| 20260504225129 | 60 | 67 | 12.0 | 21.0 | 0.00 | 0.00 | 0.00 | 44 | 1012.7 |
| 20260504224629 | 60 | 44 | 13.0 | 22.0 | 0.00 | 0.00 | 0.00 | 45 | 1013.0 |
| 20260504224131 | 60 | 84 | 15.0 | 22.0 | 0.00 | 0.00 | 0.00 | 45 | 1013.1 |
| 20260504223629 | 60 | 200 | 15.0 | 22.0 | 0.00 | 0.00 | 0.00 | 43 | 1012.9 |
| 20260504223130 | 60 | 88 | 14.0 | 20.0 | 0.00 | 0.00 | 0.00 | 46 | 1012.9 |
| 20260504222629 | 60 | 11 | 13.0 | 19.0 | 0.00 | 0.00 | 0.00 | 45 | 1012.9 |
| 20260504222129 | 60 | 62 | 13.0 | 20.0 | 0.00 | 0.00 | 0.00 | 47 | 1013.0 |
| 20260504221630 | 60 | 112 | 12.0 | 20.0 | 0.00 | 0.00 | 0.00 | 43 | 1012.8 |
| 20260504221129 | 60 | 77 | 12.0 | 19.0 | 0.00 | 0.00 | 0.00 | 45 | 1013.1 |
| 20260504220117 | 60 | 91 | 12.0 | 18.0 | 0.00 | 0.00 | 0.00 | 45 | 1012.9 |
| 20260504215115 | 60 | 74 | 14.0 | 21.0 | 0.00 | 0.00 | 0.00 | 44 | 1012.9 |
| 20260504214116 | 62 | 75 | 11.0 | 17.0 | 0.00 | 0.00 | 0.00 | 42 | 1012.9 |
| 20260504213615 | 61 | 58 | 11.0 | 17.0 | 0.00 | 0.00 | 0.00 | 42 | 1012.8 |
| 20260504213115 | 61 | 67 | 9.0 | 16.0 | 0.00 | 0.00 | 0.00 | 41 | 1012.8 |
| 20260504212613 | 62 | 72 | 8.0 | 15.0 | 0.00 | 0.00 | 0.00 | 39 | 1012.7 |
| 20260504212112 | 62 | 79 | 8.0 | 15.0 | 0.00 | 0.00 | 0.00 | 41 | 1012.6 |
| 20260504211610 | 62 | 97 | 7.0 | 13.0 | 0.00 | 0.00 | 0.00 | 40 | 1012.7 |
| 20260504211107 | 62 | 70 | 6.0 | 12.0 | 0.00 | 0.00 | 0.00 | 40 | 1012.7 |
| 20260504210607 | 62 | 95 | 7.0 | 13.0 | 0.00 | 0.00 | 0.00 | 41 | 1012.7 |
| 20260504210106 | 62 | 18 | 9.0 | 13.0 | 0.00 | 0.00 | 0.00 | 43 | 1012.8 |
| 20260504205605 | 62 | 83 | 10.0 | 16.0 | 0.00 | 0.00 | 0.00 | 41 | 1012.7 |
| 20260504205105 | 62 | 86 | 9.0 | 16.0 | 0.00 | 0.00 | 0.00 | 41 | 1012.8 |
| 20260504204606 | 63 | 52 | 5.0 | 12.0 | 0.00 | 0.00 | 0.00 | 39 | 1012.9 |
| 20260504204105 | 63 | 69 | 3.0 | 8.0 | 0.00 | 0.00 | 0.00 | 38 | 1012.8 |
| 20260504203605 | 63 | 338 | 2.0 | 8.0 | 0.00 | 0.00 | 0.00 | 37 | 1012.7 |
| 20260504203102 | 63 | 38 | 4.0 | 9.0 | 0.00 | 0.00 | 0.00 | 40 | 1012.7 |
| 20260504202601 | 63 | 55 | 4.0 | 10.0 | 0.00 | 0.00 | 0.00 | 42 | 1012.7 |
| 20260504201601 | 62 | 72 | 7.0 | 11.0 | 0.00 | 0.00 | 0.00 | 42 | 1012.8 |
| 20260504201101 | 62 | 74 | 7.0 | 11.0 | 0.00 | 0.00 | 0.00 | 44 | 1012.9 |
| 20260504200601 | 62 | 51 | 5.0 | 11.0 | 0.00 | 0.00 | 0.00 | 42 | 1012.9 |
| 20260504200101 | 62 | 73 | 5.0 | 11.0 | 0.00 | 0.00 | 0.00 | 43 | 1012.8 |
| 20260504195601 | 62 | 140 | 6.0 | 12.0 | 0.00 | 0.00 | 0.00 | 42 | 1012.8 |
| 20260504194603 | 62 | 37 | 7.0 | 14.0 | 0.00 | 0.00 | 0.00 | 38 | 1012.9 |
| 20260504194101 | 64 | 70 | 5.0 | 9.0 | 0.00 | 0.00 | 0.00 | 43 | 1012.7 |
| 20260504193602 | 64 | 36 | 4.0 | 9.0 | 0.00 | 0.00 | 0.00 | 40 | 1012.8 |
| 20260504193102 | 64 | 317 | 5.0 | 12.0 | 0.00 | 0.00 | 0.00 | 40 | 1012.9 |
| 20260504192602 | 63 | 121 | 7.0 | 12.0 | 0.00 | 0.00 | 0.00 | 38 | 1012.8 |
| 20260504192101 | 63 | 82 | 7.0 | 13.0 | 0.00 | 0.00 | 0.00 | 39 | 1012.9 |
| 20260504191600 | 63 | 74 | 5.0 | 13.0 | 0.00 | 0.00 | 0.00 | 39 | 1013.1 |
| 20260504191103 | 64 | 86 | 4.0 | 11.0 | 0.00 | 0.00 | 0.00 | 39 | 1013.0 |
| 20260504190601 | 63 | 78 | 4.0 | 10.0 | 0.00 | 0.00 | 0.00 | 40 | 1013.0 |
| 20260504190105 | 63 | 109 | 5.0 | 10.0 | 0.00 | 0.00 | 0.00 | 41 | 1013.2 |
| 20260504185102 | 62 | 28 | 6.0 | 13.0 | 0.00 | 0.00 | 0.00 | 40 | 1013.2 |
| 20260504184600 | 62 | 48 | 4.0 | 11.0 | 0.00 | 0.00 | 0.00 | 40 | 1013.3 |
| 20260504184101 | 62 | 101 | 5.0 | 11.0 | 0.00 | 0.00 | 0.00 | 39 | 1013.2 |
| 20260504183102 | 61 | 67 | 8.0 | 13.0 | 0.00 | 0.00 | 0.00 | 41 | 1013.3 |
| 20260504182601 | 61 | 80 | 8.0 | 13.0 | 0.00 | 0.00 | 0.00 | 41 | 1013.4 |
| 20260504182101 | 61 | 103 | 9.0 | 15.0 | 0.00 | 0.00 | 0.00 | 43 | 1013.4 |
| 20260504181603 | 61 | 296 | 8.0 | 15.0 | 0.00 | 0.00 | 0.00 | 44 | 1013.4 |
| 20260504181102 | 61 | 74 | 7.0 | 12.0 | 0.00 | 0.00 | 0.00 | 42 | 1013.3 |
| 20260504175602 | 61 | 42 | 8.0 | 14.0 | 0.00 | 0.00 | 0.00 | 44 | 1013.4 |
| 20260504175059 | 60 | 56 | 10.0 | 14.0 | 0.00 | 0.00 | 0.00 | 43 | 1013.3 |
| 20260504174554 | 61 | 65 | 8.0 | 13.0 | 0.00 | 0.00 | 0.00 | 42 | 1013.3 |
| 20260504174048 | 61 | 55 | 4.0 | 13.0 | 0.00 | 0.00 | 0.00 | 44 | 1013.3 |
| 20260504173542 | 62 | 73 | 2.0 | 6.0 | 0.00 | 0.00 | 0.00 | 43 | 1013.3 |